Location: Bühlhof
(48.7849°N, 8.6361°E)
Time: 04:00:27
(UTC+00:00)

DNEPR-1 R/B - Visible Passes

Search period start: 21 April 2026 00:00
Search period end: 01 May 2026 00:00
Orbit: 583 x 1330 km, 64.6° (Epoch: 20 April)

Date Brightness Start Highest point End Pass type
(mag) Time Alt. Az. Time Alt. Az. Time Alt. Az.
21 Apr 6.3 00:42:56 10° NNW 00:47:05 25° NNE 00:51:52 10° E visible
21 Apr 4.3 02:29:39 10° NW 02:34:58 88° NE 02:41:30 10° SE visible
21 Apr 5.1 19:36:24 10° WSW 19:40:21 38° NW 19:44:35 10° NNE visible
21 Apr 6.8 21:26:38 10° NW 21:29:00 14° NNW 21:31:31 10° NNE visible
21 Apr 6.9 23:15:44 10° NNW 23:18:25 14° NNE 23:21:18 10° NE visible
22 Apr 5.7 01:02:26 10° NNW 01:07:08 35° NE 01:12:42 10° ESE visible
22 Apr 4.3 02:49:22 10° NW 02:54:41 59° SW 03:01:09 10° SSE visible
22 Apr 6.0 19:56:49 10° W 20:00:21 25° NNW 20:04:10 10° NNE visible
22 Apr 6.9 21:47:23 10° NNW 21:49:23 13° N 21:51:31 10° NNE visible
22 Apr 6.6 23:35:20 10° NNW 23:38:44 18° NNE 23:42:29 10° ENE visible
23 Apr 5.0 01:21:57 10° NNW 01:27:03 53° NE 01:33:14 10° ESE visible
23 Apr 4.9 03:09:17 10° NW 03:14:19 36° WSW 03:20:18 10° S visible
23 Apr 6.5 20:17:29 10° WNW 20:20:31 18° NNW 20:23:45 10° NNE visible
23 Apr 6.9 22:07:43 10° NNW 22:09:48 13° N 22:12:01 10° NNE visible
23 Apr 6.2 23:54:51 10° NNW 23:58:56 24° NNE 00:03:36 10° E visible
24 Apr 4.3 01:41:33 10° NW 01:46:51 82° NE 01:53:23 10° SE visible
24 Apr 5.5 03:29:35 10° WNW 03:33:52 22° WSW 03:38:44 10° SSW visible
24 Apr 6.7 20:38:19 10° NW 20:40:48 14° NNW 20:43:26 10° NNE visible
24 Apr 6.8 22:27:36 10° NNW 22:30:12 14° NNE 22:33:01 10° NE visible
25 Apr 5.7 00:14:20 10° NNW 00:18:59 34° NE 00:24:29 10° ESE visible
25 Apr 4.3 02:01:15 10° NW 02:06:36 63° SW 02:13:07 10° SSE visible
25 Apr 5.9 19:08:33 10° W 19:12:11 26° NNW 19:16:05 10° NNE visible
25 Apr 6.8 20:59:06 10° NNW 21:01:10 13° N 21:03:22 10° NNE visible
25 Apr 6.6 22:47:13 10° NNW 22:50:32 17° NNE 22:54:12 10° ENE visible
26 Apr 5.0 00:33:51 10° NNW 00:38:56 50° NE 00:45:03 10° ESE visible
26 Apr 4.8 02:21:07 10° NW 02:26:15 39° WSW 02:32:20 10° S visible
26 Apr 6.4 19:29:12 10° WNW 19:32:19 19° NNW 19:35:40 10° NNE visible
26 Apr 6.8 21:19:31 10° NNW 21:21:36 13° N 21:23:48 10° NNE visible
26 Apr 6.2 23:06:45 10° NNW 23:10:44 23° NNE 23:15:19 10° E visible
27 Apr 4.3 00:53:26 10° NW 00:58:45 77° NE 01:05:16 10° SE visible
27 Apr 5.4 02:41:20 10° WNW 02:45:48 24° WSW 02:50:55 10° SSW visible
27 Apr 6.6 19:50:01 10° NW 19:52:35 15° NNW 19:55:21 10° NNE visible
27 Apr 6.7 21:39:27 10° NNW 21:42:00 14° NNE 21:44:44 10° NE visible
27 Apr 5.7 23:26:15 10° NNW 23:30:50 32° NE 23:36:15 10° E visible
28 Apr 4.2 01:13:06 10° NW 01:18:29 68° SW 01:22:58 21° SSE visible
28 Apr 6.0 03:02:21 10° W 03:05:14 14° WSW 03:06:58 12° SW visible
28 Apr 6.6 20:10:48 10° NW 20:12:57 13° N 20:15:13 10° NNE visible
28 Apr 6.5 21:59:06 10° NNW 22:02:20 17° NNE 22:05:54 10° ENE visible
28 Apr 5.1 23:45:45 10° NNW 23:50:47 47° NE 23:55:48 15° ESE visible
29 Apr 4.7 01:32:57 10° NW 01:38:09 42° WSW 01:39:56 34° SSW visible
29 Apr 6.7 20:31:17 10° NNW 20:33:22 13° N 20:35:35 10° NNE visible
29 Apr 6.2 22:18:38 10° NNW 22:22:34 22° NNE 22:27:02 10° E visible
30 Apr 4.4 00:05:19 10° NW 00:10:38 73° NE 00:13:37 32° SE visible
30 Apr 5.3 01:53:05 10° WNW 01:57:43 26° WSW 01:57:46 26° WSW visible
30 Apr 6.6 20:51:17 10° NNW 20:53:47 14° N 20:56:28 10° NE visible
30 Apr 5.7 22:38:08 10° NNW 22:42:40 30° NE 22:47:40 11° E visible
